Regional Weather Roundup
Issued by NWS

Home | Current Version | Previous Version | Text Only | Print | Product List | Glossary On
Versions: 1 2 3 4 5 6 7 8 9 10 11 12 13 14 15 16 17 18 19 20 21 22 23 24 25 26 27 28 29 30 31 32 33 34 35 36 37 38 39 40 41 42 43 44 45 46 47 48 49 50
000
ASUS46 KSEW 260710
RWRWA

WASHINGTON REGIONAL WEATHER ROUNDUP
NATIONAL WEATHER SERVICE SEATTLE WA
1100 PM PST SAT FEB 25 2017

NOTE:"FAIR" INDICATES FEW OR NO CLOUDS BELOW 12,000 FEET WITH NO
SIGNIFICANT WEATHER AND/OR OBSTRUCTIONS TO VISIBILITY.

WAZ507-509-555>559-260800-
SEATTLE, TACOMA, EVERETT, AND VICINITY

CITY           SKY/WX    TMP DP  RH WIND       PRES   REMARKS
EVERETT        CLOUDY    38  34  85 SE9       29.89F
BOEING FIELD   CLOUDY    41  35  79 S14G22    29.91F
RENTON         CLOUDY    41  33  73 S12       29.91F
SEATAC AIRPORT CLOUDY    40  33  76 S16G22    29.91F
JBLM-MCCHORD   CLOUDY    39  34  83 S9        29.93F
PUYALLUP       DRIZZLE   39  32  75 SE6       29.93F
BREMERTON      CLOUDY    37  34  87 S15G21    29.93S
JBLM-FT LEWIS  MIX PCPN  39  36  87 S10       29.92F
TACOMA NARROWS LGT RAIN  39  34  82 SW10      29.92F
$$

WAZ001-503-506-510-514-515-260800-
NORTH INTERIOR

CITY           SKY/WX    TMP DP  RH WIND       PRES   REMARKS
BELLINGHAM     LGT RAIN  36  35  96 SE13      29.88F
FRIDAY HARBOR  LGT RAIN  38  35  89 CALM      29.89F
EASTSOUND      LGT RAIN  37  36  93 S7        29.88F
PORT ANGELES   LGT RAIN  36  35  96 SE6       29.87F
EDIZ HOOK      RAIN      38  34  87 SE9       29.89F
PORT TOWNSEND  CLOUDY    37  37 100 CALM      29.90F FOG
NAS WHIDBEY    LGT RAIN  39  34  82 CALM      29.94F
ARLINGTON      CLOUDY    36  28  75 CALM      29.92F
BURLINGTON     CLOUDY    34  34 100 N3        29.91F FOG
$$

WAZ020-022-039-040-504-511-512-260800-
SOUTHWEST INTERIOR

CITY           SKY/WX    TMP DP  RH WIND       PRES   REMARKS
SHELTON        CLOUDY    37  34  89 SW9       29.90F
OLYMPIA        LGT RAIN  38  33  82 S10       29.94F
CHEHALIS       CLOUDY    39  34  81 S9        29.96F
KELSO          CLOUDY    38  34  85 S5        30.00F
VANCOUVER      MOCLDY    38  36  92 CALM      30.01F
SCAPPOOSE, OR  CLOUDY    37  34  89 CALM      30.00F
PORTLAND, OR   MOCLDY    37  34  89 E3        30.02F
$$

WAZ021-516-517-260800-
WASHINGTON COAST

CITY           SKY/WX    TMP DP  RH WIND       PRES   REMARKS
FORKS          LGT RAIN  36  36 100 CALM      29.87F
HOQUIAM        LGT RAIN  41  39  93 S16       29.92F
ASTORIA, OR    LGT RAIN  39  35  86 S6        29.96F
$$

WAZ019-023-024-040-567>569-260800-
CASCADE MOUNTAINS AND COLUMBIA GORGE

CITY           SKY/WX    TMP DP  RH WIND       PRES   REMARKS
STAMPEDE PASS  NOT AVBL
TROUTDALE, OR  MOCLDY    39  35  86 CALM      30.02F
THE DALLES, OR CLOUDY    42  32  67 W7        29.96F
$$

WAZ026-027-041>044-520-521-260800-
EAST SLOPES

CITY           SKY/WX    TMP DP  RH WIND       PRES   REMARKS
OMAK           CLOUDY    28  19  69 N3        29.85F
WENATCHEE      CLOUDY    30  22  72 NW3       29.83F
ELLENSBURG     CLOUDY    33  25  72 NW10      29.84F WCI  25
YAKIMA         CLOUDY    37  25  61 SE3       29.88F
SUNNYSIDE ARPT CLOUDY    32  28  87 CALM      29.91S
$$

WAZ028-034-035-260800-
COLUMBIA BASIN

CITY           SKY/WX    TMP DP  RH WIND       PRES   REMARKS
EPHRATA        CLOUDY    32  23  69 CALM      29.83F
MOSES LAKE     CLOUDY    35  26  69 SW8       29.85F
PASCO          CLOUDY    38  27  64 SW9       29.93F
HERMISTON, OR  CLOUDY    39  28  64 SW13      29.92F
$$

WAZ036>038-260800-
NORTHEAST WASHINGTON

CITY           SKY/WX    TMP DP  RH WIND       PRES   REMARKS
SPOKANE GEIGER FLURRIES  31  24  75 SW12      29.81F WCI  22
SPOKANE FELTS  CLOUDY    33  26  75 SW8       29.83F
FAIRCHILD AFB  CLOUDY    30  25  80 SW9       29.79F
COEURDALENE,ID FLURRIES  30  27  88 S10       29.82F WCI  21
DEER PARK      CLOUDY    29  23  78 S8        29.82F
$$

WAZ029>033-260800-
SOUTHEAST WASHINGTON

CITY           SKY/WX    TMP DP  RH WIND       PRES   REMARKS
PULLMAN        FLURRIES  32  25  75 SW10      29.86F WCI  24
LEWISTON, ID   CLOUDY    34  26  72 SE5       29.89F
WALLA WALLA    CLOUDY    38  26  62 S14       29.91F
PENDLETON, OR  CLOUDY    36  26  67 S10       29.91F
$$



USA.gov is the U.S. government's official web portal to all federal, state and local government web resources and services.